Date String (YYYY-MM-DD hh:mm:ss) UTC,Instrument flags,Ambient pressure (hPa),Sample flow (lpm),Bypass flow (lpm),Sample temperature (°C),Ambient temperature (°C),ASC tube jacket temperature (°C),LED temperature (°C),Box temperature (°C),Sample RH (%),Span deviation,Mass concentration (μg/m³),Mass concentration (μg/m³),Mass concentration (μg/m³)
DateTimeUTC,F1_M11,P_M11,Q1_M11,Q2_M11,T1_M11,T2_M11,T3_M11,T4_M11,T5_M11,U1_M11,ZSPAN_M11,X2_M11,X0_M11,X1_M11
2022-04-27 15:00:00,,0824.4,5.01,0.00,28.3,27.5,00.0,37.2,30.1,11.6,0003.3,0012.87,0040.11,0005.97
2022-04-27 15:01:00,,0824.4,4.99,0.00,28.3,27.5,00.0,37.2,30.1,11.0,0003.9,0012.82,0040.13,0005.95
2022-04-27 15:02:00,,0824.4,4.99,0.00,28.3,27.5,00.0,37.2,30.1,09.2,0004.4,0012.74,0039.84,0005.94
2022-04-27 15:03:00,,0824.4,5.00,0.00,28.3,27.5,00.0,37.2,30.1,08.9,0005.3,0012.79,0039.28,0005.96
2022-04-27 15:04:00,,0824.4,5.02,0.00,28.3,27.5,00.0,37.2,30.1,09.8,0005.3,0012.86,0039.07,0005.98
2022-04-27 15:05:00,,0824.4,5.00,0.00,28.3,27.5,00.0,37.2,30.1,09.4,0005.0,0012.89,0038.32,0006.02
2022-04-27 15:06:00,,0824.5,4.99,0.00,28.4,27.5,00.0,37.2,30.2,10.1,0005.2,0012.79,0037.26,0006.03
2022-04-27 15:07:00,,0824.4,5.02,0.00,28.4,27.6,00.0,37.2,30.2,13.2,0005.5,0012.72,0036.61,0006.05
2022-04-27 15:08:00,,0824.4,5.00,0.00,28.4,27.6,00.0,37.2,30.2,12.6,0004.6,0012.70,0036.77,0006.08
2022-04-27 15:09:00,,0824.4,5.00,0.00,28.4,27.6,00.0,37.2,30.2,11.2,0004.3,0012.71,0036.55,0006.08
2022-04-27 15:10:00,,0824.4,5.00,0.00,28.4,27.6,00.0,37.3,30.2,12.9,0004.2,0012.66,0036.63,0006.09
2022-04-27 15:11:00,,0824.4,5.01,0.00,28.4,27.6,00.0,37.3,30.2,14.4,0004.2,0012.55,0036.21,0006.09
2022-04-27 15:12:00,,0824.4,5.00,0.00,28.4,27.6,00.0,37.3,30.2,13.2,0004.1,0012.60,0036.00,0006.10
2022-04-27 15:13:00,,0824.5,4.99,0.00,28.4,27.6,00.0,37.3,30.2,13.6,0003.1,0012.60,0036.33,0006.10
2022-04-27 15:14:00,,0824.4,5.00,0.00,28.4,27.7,00.0,37.3,30.2,12.6,0001.7,0012.67,0036.49,0006.10
2022-04-27 15:15:00,,0824.4,5.00,0.00,28.4,27.7,00.0,37.3,30.2,11.6,0001.6,0012.68,0035.61,0006.09
2022-04-27 15:16:00,,0824.4,4.99,0.00,28.4,27.7,00.0,37.3,30.2,11.7,0001.1,0012.67,0035.48,0006.07
2022-04-27 15:17:00,,0824.4,4.99,0.00,28.4,27.7,00.0,37.3,30.3,12.3,0000.4,0012.66,0037.56,0006.06
2022-04-27 15:18:00,,0824.4,5.01,0.00,28.5,27.7,00.0,37.3,30.3,11.9,0000.1,0012.69,0038.10,0006.06
2022-04-27 15:19:00,,0824.4,5.01,0.00,28.5,27.7,00.0,37.3,30.3,11.3,0000.8,0012.75,0037.63,0006.07
2022-04-27 15:20:00,,0824.4,4.99,0.00,28.5,27.7,00.0,37.3,30.3,09.9,0002.5,0012.72,0036.47,0006.08
2022-04-27 15:21:00,,0824.4,4.99,0.00,28.5,27.7,00.0,37.3,30.3,09.7,0003.3,0012.71,0035.46,0006.08
2022-04-27 15:22:00,,0824.4,5.02,0.00,28.5,27.7,00.0,37.3,30.3,08.6,0003.6,0012.70,0034.41,0006.11
2022-04-27 15:23:00,,0824.4,4.98,0.00,28.5,27.7,00.0,37.4,30.3,09.0,0004.2,0012.73,0034.33,0006.13
2022-04-27 15:24:00,,0824.4,5.00,0.00,28.5,27.7,00.0,37.4,30.3,09.1,0004.8,0012.74,0034.45,0006.14
2022-04-27 15:25:00,,0824.4,5.00,0.00,28.5,27.7,00.0,37.4,30.3,09.2,0005.0,0012.79,0034.31,0006.14
2022-04-27 15:26:00,,0824.5,5.01,0.00,28.5,27.7,00.0,37.4,30.3,08.8,0006.5,0012.77,0034.67,0006.15
2022-04-27 15:27:00,,0824.4,5.00,0.00,28.5,27.7,00.0,37.4,30.3,08.7,0006.2,0012.65,0034.71,0006.15
2022-04-27 15:28:00,,0824.4,4.99,0.00,28.5,27.7,00.0,37.4,30.3,08.9,0005.6,0012.67,0033.36,0006.17
2022-04-27 15:29:00,,0824.4,5.00,0.00,28.5,27.7,00.0,37.4,30.3,08.7,0005.7,0012.61,0033.89,0006.19
2022-04-27 15:30:00,,0824.4,5.02,0.00,28.5,27.7,00.0,37.4,30.3,08.6,0005.6,0012.61,0033.93,0006.20
2022-04-27 15:31:00,,0824.3,5.00,0.00,28.5,27.7,00.0,37.4,30.3,08.4,0005.5,0012.55,0033.86,0006.20
2022-04-27 15:32:00,,0824.4,5.01,0.00,28.5,27.7,00.0,37.4,30.3,08.6,0005.6,0012.57,0033.86,0006.21
2022-04-27 15:33:00,,0824.3,5.01,0.00,28.5,27.7,00.0,37.4,30.3,09.0,0004.6,0012.64,0034.16,0006.20
2022-04-27 15:34:00,,0824.3,4.99,0.00,28.5,27.7,00.0,37.4,30.3,09.0,0003.3,0012.61,0034.00,0006.18
2022-04-27 15:35:00,,0824.3,5.00,0.00,28.5,27.7,00.0,37.4,30.3,08.7,0003.7,0012.61,0034.19,0006.20
2022-04-27 15:36:00,,0824.3,5.01,0.00,28.5,27.8,00.0,37.4,30.3,08.3,0004.4,0012.59,0034.99,0006.22
2022-04-27 15:37:00,,0824.3,5.01,0.00,28.6,27.8,00.0,37.4,30.3,08.2,0004.1,0012.64,0034.82,0006.24
2022-04-27 15:38:00,,0824.3,4.99,0.00,28.6,27.8,00.0,37.4,30.3,08.4,0003.8,0012.77,0035.24,0006.24
2022-04-27 15:39:00,,0824.3,5.01,0.00,28.6,27.8,00.0,37.4,30.4,08.3,0003.6,0012.84,0035.06,0006.24
2022-04-27 15:40:00,,0824.3,5.01,0.00,28.6,27.8,00.0,37.4,30.3,08.2,0003.8,0012.98,0035.13,0006.26
2022-04-27 15:41:00,,0824.3,4.99,0.00,28.6,27.8,00.0,37.4,30.4,08.3,0002.7,0013.00,0035.79,0006.25
2022-04-27 15:42:00,,0824.3,4.99,0.00,28.6,27.9,00.0,37.5,30.4,08.5,0001.8,0013.00,0035.98,0006.27
2022-04-27 15:43:00,,0824.3,5.00,0.00,28.6,27.9,00.0,37.5,30.4,08.7,0001.6,0012.94,0035.99,0006.28
2022-04-27 15:44:00,,0824.2,5.02,0.00,28.6,27.9,00.0,37.5,30.4,09.0,0003.5,0012.94,0036.46,0006.28
2022-04-27 15:45:00,,0824.2,5.00,0.00,28.7,27.9,00.0,37.5,30.5,08.8,0004.5,0012.90,0037.01,0006.27
2022-04-27 15:46:00,,0824.2,4.99,0.00,28.7,27.9,00.0,37.5,30.5,08.0,0005.2,0012.91,0037.25,0006.25
2022-04-27 15:47:00,,0824.2,5.00,0.00,28.7,28.0,00.0,37.5,30.5,07.7,0006.0,0012.89,0035.71,0006.23
2022-04-27 15:48:00,,0824.2,5.00,0.00,28.7,28.0,00.0,37.5,30.5,07.8,0008.7,0012.89,0035.79,0006.22
2022-04-27 15:49:00,,0824.2,5.01,0.00,28.7,28.0,00.0,37.6,30.5,07.8,0009.5,0012.81,0035.52,0006.22
2022-04-27 15:50:00,,0824.2,5.01,0.00,28.8,28.0,00.0,37.6,30.5,08.0,0010.8,0012.69,0034.71,0006.22
2022-04-27 15:51:00,,0824.2,5.00,0.00,28.8,28.0,00.0,37.6,30.5,08.1,0010.3,0012.59,0034.72,0006.20
2022-04-27 15:52:00,,0824.2,5.00,0.00,28.8,28.1,00.0,37.6,30.6,07.9,0009.5,0012.44,0033.88,0006.21
2022-04-27 15:53:00,,0824.2,5.00,0.00,28.8,28.1,00.0,37.6,30.6,08.1,0008.5,0012.39,0034.21,0006.19
2022-04-27 15:54:00,,0824.1,5.02,0.00,28.8,28.1,00.0,37.6,30.6,08.3,0009.0,0012.52,0034.58,0006.20
2022-04-27 15:55:00,,0824.2,4.99,0.00,28.9,28.1,00.0,37.6,30.6,08.0,0009.6,0012.54,0034.71,0006.19
2022-04-27 15:56:00,,0824.1,5.01,0.00,28.9,28.1,00.0,37.7,30.7,08.1,0008.6,0012.58,0035.83,0006.21
2022-04-27 15:57:00,,0824.1,5.02,0.00,28.9,28.1,00.0,37.7,30.6,08.2,0007.2,0012.62,0035.22,0006.23
2022-04-27 15:58:00,,0824.1,4.99,0.00,28.9,28.2,00.0,37.7,30.7,08.6,0007.0,0012.58,0035.37,0006.23
2022-04-27 15:59:00,,0824.1,5.00,0.00,28.9,28.2,00.0,37.7,30.7,08.5,0006.2,0012.59,0035.65,0006.24
